Vorticity
7 8 8 6 5 5 4 4 7 1 3 5 5 7 7 7 9 7 6 7 8 8 7 8 7 7 6 5 6 6 6 6 8 8 7 8 7 8 7 8 9 7 6 5
5 8 7 6 3 6 1 4 5 5 3 11 3 6 5 6 8 7 7 8 9 8 9 7 6 5 5 4 4 6 7 6 6 7 8 9 7 8 10 9 6 6 8 6
4 1 7 3 4 4 3 -1 4 2 6 3 6 7 2 5 8 6 7 9 8 8 10 10 8 7 6 7 6 7 8 6 5 7 8 7 5 10 10 5 23 9 5 5
4 4 4 6 6 3 2 2 4 4 5 3 6 9 5 9 8 9 7 5 6 8 8 7 7 7 5 3 1 -1 3 6 7 9 7 5 7 6 5 9 15 13 7 5
2 5 4 7 5 6 6 6 6 3 7 10 10 8 10 5 6 4 3 3 5 4 1 2 3 5 4 2 3 4 2 7 6 8 8 8 8 7 6 9 5 24 13 4
7 6 4 4 6 8 9 8 16 11 13 10 6 9 10 9 5 1 0 1 3 4 4 0 2 3 3 2 4 5 6 7 6 7 8 10 10 12 4 5 5 21 5 16
8 8 7 6 4 5 7 8 7 6 3 3 -3 6 4 3 1 3 3 -1 2 3 2 3 4 4 2 5 3 3 8 9 9 10 10 10 11 10 6 2 9 5 16 14
6 9 8 8 11 9 8 8 10 8 10 7 5 5 8 9 8 6 5 4 4 3 5 7 4 2 7 8 6 7 -0 14 12 12 13 11 19 21 9 -5 15 14 22 13
6 7 9 8 10 9 6 3 3 1 -1 6 0 -2 5 6 7 8 7 5 6 3 3 5 6 8 11 9 7 8 4 15 14 13 11 7 12 11 6 8 3 24 19 10
5 6 2 2 2 3 8 9 9 11 8 5 3 5 3 5 5 5 3 1 2 6 8 7 8 8 8 9 8 8 13 14 9 9 12 13 17 9 18 16 14 29 20 10
3 0 5 12 10 5 -1 2 2 3 2 2 2 1 -1 -2 0 10 22 26 21 12 7 4 7 11 12 12 12 15 16 16 16 14 17 19 9 15 13 2 24 16 11 12
10 16 11 7 3 1 6 4 5 2 0 5 9 13 21 29 19 7 8 7 6 9 13 12 13 17 19 19 20 19 23 29 26 21 14 8 11 8 10 20 16 16 13 14
12 17 17 16 19 22 24 24 25 28 30 25 13 7 1 3 3 7 8 9 11 13 16 18 19 16 20 18 22 28 26 23 14 12 17 15 16 18 15 13 14 18 13 21
14 12 11 9 8 8 6 2 5 9 6 3 5 9 11 8 5 6 11 13 13 15 15 15 15 16 20 27 21 24 21 24 26 20 20 18 22 20 11 16 17 17 21 16
2 3 4 5 7 8 5 7 12 8 5 2 6 8 9 5 6 12 16 16 15 17 15 19 18 15 11 19 10 22 16 19 17 18 22 23 18 20 16 11 11 12 13 15
1 4 6 6 1 2 2 7 6 6 2 10 11 9 9 13 14 15 16 13 14 17 17 11 17 16 21 11 3 8 2 14 16 13 14 16 14 14 13 11 8 13 14 14
5 4 7 9 5 6 13 9 4 13 13 7 8 6 6 6 11 15 17 15 14 14 12 13 11 11 20 16 12 -4 -7 -6 1 -6 -17 2 12 10 9 9 23 14 13 15
8 9 11 13 11 2 -2 6 6 3 6 6 7 6 6 12 15 15 9 10 12 12 13 10 10 11 12 15 23 12 3 7 14 3 -6 11 -5 6 2 -1 5 21 16 15
8 5 5 5 7 13 15 10 5 6 6 7 7 7 9 14 14 13 11 8 10 13 10 10 10 7 8 16 14 14 18 12 17 12 10 4 5 11 1 12 7 10 18 16
8 8 11 10 6 5 11 8 13 12 7 13 13 15 14 16 15 16 15 16 16 10 7 5 7 13 14 15 13 18 14 13 15 16 21 6 9 10 4 4 10 12 14 15
7 5 5 10 11 6 7 8 11 10 11 10 13 15 16 16 17 16 16 17 22 14 13 11 12 13 15 16 15 21 16 19 19 8 -5 22 11 14 5 9 12 12 13 14
6 10 10 11 12 13 11 14 17 18 18 17 17 21 23 24 25 28 25 22 20 19 16 15 16 18 16 12 15 16 20 19 30 9 13 8 7 11 10 17 15 11 13 14
11 12 11 12 13 13 15 16 15 15 21 25 26 24 22 25 30 30 26 29 25 23 21 21 20 15 11 11 10 20 26 24 20 9 17 5 17 22 21 15 20 12 13 13
14 14 10 15 17 20 21 20 21 27 26 28 31 31 30 33 32 37 33 25 23 19 17 20 18 13 7 10 6 24 31 23 14 19 2 1 0 9 13 22 15 15 14 12
11 14 21 21 21 23 22 24 26 29 32 33 29 31 32 38 2 9 6 23 17 13 9 11 6 10 7 14 9 34 33 19 6 -6 1 5 4 10 12 20 10 17 15 11
20 20 23 23 24 24 21 24 28 32 25 27 31 29 -2 7 19 18 11 9 9 8 19 18 17 16 6 16 13 26 25 28 -11 5 12 8 7 6 13 21 9 18 14 8
20 22 23 22 27 18 19 21 26 23 26 29 26 13 9 12 11 10 13 13 14 17 19 17 17 21 15 16 13 20 31 18 -1 13 6 9 4 8 19 14 10 16 11 8
Height
5755 5755 5755 5755 5754 5752 5752 5751 5750 5748 5746 5745 5743 5741 5738 5736 5732 5728 5725 5722 5719 5716 5713 5709 5705 5701 5697 5693 5688 5684 5679 5674 5670 5665 5659 5653 5647 5642 5637 5631 5626 5621 5615 5609
5753 5753 5753 5752 5750 5749 5748 5746 5746 5744 5742 5741 5738 5736 5732 5729 5726 5722 5719 5715 5712 5709 5706 5701 5697 5694 5690 5685 5681 5676 5671 5665 5660 5655 5649 5643 5638 5632 5626 5619 5613 5609 5604 5599
5751 5750 5750 5750 5747 5746 5743 5742 5742 5740 5738 5737 5733 5730 5725 5722 5720 5716 5714 5710 5706 5702 5698 5694 5689 5686 5682 5677 5672 5667 5662 5656 5649 5644 5638 5632 5626 5620 5614 5608 5602 5596 5591 5587
5747 5745 5745 5743 5741 5741 5738 5738 5737 5734 5732 5729 5726 5724 5718 5713 5712 5709 5705 5702 5698 5694 5691 5686 5682 5678 5672 5667 5662 5658 5652 5646 5639 5633 5626 5619 5614 5608 5602 5596 5590 5584 5578 5573
5742 5741 5739 5736 5736 5735 5733 5729 5727 5725 5722 5718 5716 5716 5712 5705 5702 5699 5697 5694 5690 5685 5681 5676 5672 5667 5662 5656 5651 5644 5638 5633 5626 5620 5613 5607 5601 5594 5588 5582 5576 5570 5565 5560
5736 5736 5733 5728 5726 5725 5724 5722 5720 5717 5714 5711 5709 5707 5706 5700 5696 5692 5689 5685 5681 5677 5673 5667 5661 5656 5650 5644 5638 5630 5625 5618 5612 5606 5599 5593 5586 5580 5574 5568 5562 5556 5551 5546
5726 5725 5725 5720 5719 5719 5716 5716 5711 5708 5705 5703 5700 5697 5694 5692 5689 5683 5678 5674 5669 5663 5658 5652 5647 5642 5636 5630 5622 5616 5609 5603 5596 5590 5584 5578 5572 5566 5560 5553 5548 5544 5538 5534
5719 5717 5715 5713 5711 5710 5706 5705 5701 5699 5696 5693 5690 5687 5683 5679 5674 5669 5665 5661 5655 5650 5644 5637 5631 5627 5622 5615 5607 5601 5594 5586 5580 5574 5568 5561 5555 5549 5545 5540 5535 5529 5525 5519
5711 5708 5705 5701 5700 5697 5695 5694 5692 5689 5687 5683 5679 5676 5671 5668 5662 5657 5652 5647 5641 5636 5630 5622 5614 5609 5604 5595 5588 5581 5574 5567 5561 5556 5550 5544 5539 5535 5531 5525 5520 5516 5510 5505
5698 5698 5693 5690 5686 5684 5683 5679 5676 5673 5670 5667 5664 5660 5656 5651 5647 5642 5636 5630 5624 5618 5612 5606 5597 5591 5585 5578 5570 5562 5555 5549 5544 5538 5532 5528 5524 5521 5516 5511 5507 5502 5497 5493
5688 5686 5684 5680 5675 5673 5670 5666 5662 5657 5654 5650 5647 5643 5639 5634 5629 5624 5618 5611 5605 5599 5593 5587 5579 5572 5565 5559 5553 5546 5538 5532 5526 5522 5517 5513 5510 5507 5501 5497 5493 5489 5485 5481
5673 5673 5669 5666 5664 5660 5656 5652 5648 5644 5640 5634 5632 5627 5622 5615 5610 5605 5600 5593 5587 5579 5574 5567 5560 5553 5546 5538 5531 5525 5519 5514 5510 5506 5502 5498 5494 5490 5486 5482 5478 5475 5472 5470
5659 5657 5653 5650 5647 5643 5640 5636 5632 5629 5624 5619 5613 5609 5604 5599 5593 5587 5580 5574 5567 5560 5554 5547 5540 5533 5526 5520 5513 5508 5503 5499 5494 5491 5487 5483 5479 5475 5471 5469 5466 5462 5460 5458
5647 5644 5641 5639 5635 5630 5626 5623 5618 5613 5607 5601 5597 5591 5587 5581 5575 5567 5561 5556 5549 5542 5535 5528 5521 5515 5510 5504 5500 5495 5491 5486 5481 5478 5474 5470 5466 5462 5460 5457 5455 5452 5449 5447
5634 5631 5627 5622 5619 5615 5611 5607 5602 5597 5592 5587 5581 5575 5570 5564 5557 5550 5541 5535 5531 5524 5516 5511 5504 5500 5496 5492 5488 5485 5480 5476 5471 5467 5464 5461 5457 5453 5451 5449 5446 5442 5439 5436
5619 5615 5611 5607 5602 5597 5593 5588 5584 5578 5573 5567 5560 5554 5548 5543 5538 5531 5523 5514 5510 5508 5503 5493 5488 5484 5482 5480 5477 5474 5471 5467 5463 5459 5455 5452 5448 5447 5444 5440 5436 5433 5429 5427
5601 5597 5592 5588 5584 5581 5576 5570 5564 5560 5555 5548 5542 5536 5531 5526 5521 5513 5507 5500 5494 5491 5486 5479 5475 5470 5467 5464 5463 5462 5460 5457 5455 5451 5448 5445 5442 5438 5435 5432 5428 5423 5419 5417
5584 5580 5575 5571 5567 5564 5560 5554 5547 5539 5532 5526 5520 5516 5512 5506 5500 5495 5489 5483 5480 5476 5471 5463 5459 5455 5453 5451 5448 5447 5445 5442 5443 5440 5437 5435 5433 5429 5425 5421 5418 5414 5410 5406
5567 5563 5559 5555 5547 5542 5538 5531 5524 5519 5513 5504 5500 5497 5491 5486 5480 5475 5469 5465 5463 5458 5456 5448 5442 5439 5438 5436 5433 5430 5428 5426 5425 5424 5423 5421 5420 5417 5415 5412 5408 5404 5401 5397
5548 5542 5539 5533 5526 5517 5512 5507 5499 5496 5492 5481 5477 5471 5466 5462 5455 5451 5447 5447 5443 5437 5435 5431 5427 5424 5421 5418 5416 5414 5411 5409 5409 5408 5407 5407 5406 5405 5403 5401 5397 5394 5391 5389
5526 5521 5516 5509 5504 5498 5489 5484 5477 5471 5467 5458 5446 5441 5436 5435 5430 5425 5423 5421 5423 5414 5413 5410 5407 5405 5403 5400 5399 5398 5394 5393 5393 5395 5394 5393 5393 5392 5390 5387 5386 5384 5381 5379
5505 5500 5495 5487 5478 5475 5471 5461 5452 5444 5438 5430 5423 5415 5410 5407 5402 5400 5398 5395 5396 5394 5392 5391 5389 5387 5385 5384 5383 5381 5379 5377 5379 5381 5381 5380 5380 5378 5377 5376 5375 5372 5371 5370
5485 5478 5471 5463 5455 5449 5444 5437 5427 5417 5410 5404 5399 5393 5387 5384 5381 5378 5380 5378 5375 5375 5374 5374 5372 5370 5370 5370 5368 5366 5364 5363 5365 5369 5370 5370 5369 5368 5367 5365 5363 5362 5361 5360
5463 5456 5448 5440 5430 5423 5416 5412 5403 5397 5387 5384 5380 5374 5369 5367 5367 5364 5362 5362 5361 5360 5359 5358 5358 5356 5355 5355 5354 5352 5351 5351 5354 5357 5360 5359 5358 5357 5356 5355 5353 5352 5351 5351
5440 5432 5424 5417 5409 5402 5394 5388 5383 5380 5373 5370 5365 5361 5357 5356 5354 5356 5351 5350 5348 5347 5347 5344 5343 5343 5343 5342 5341 5339 5338 5340 5344 5348 5348 5348 5348 5347 5346 5345 5343 5343 5342 5342
5419 5411 5405 5399 5391 5385 5379 5373 5370 5366 5358 5357 5354 5351 5352 5351 5346 5344 5341 5339 5337 5336 5334 5332 5331 5330 5330 5330 5329 5328 5328 5330 5332 5334 5336 5337 5337 5337 5336 5335 5334 5334 5334 5333
5400 5395 5389 5385 5381 5372 5368 5364 5359 5356 5350 5347 5347 5346 5345 5343 5340 5336 5333 5330 5326 5324 5322 5320 5318 5318 5318 5317 5317 5317 5317 5320 5323 5325 5327 5328 5328 5327 5326 5326 5325 5325 5325 5324